{"data":{"norad_id":55999,"epoch":"2026-09-20T09:13:39.871200Z","epoch_age_seconds":116209,"freshness":"FRESH","line1":"1 55999U 23042P   26263.38448925 -.00000144  00000+0  43097-5 0  9997","line2":"2 55999  43.0034  40.2260 0001835 257.9122 102.1524 15.27580247192640","mean_motion":15.27580247,"eccentricity":0.0001835,"inclination_deg":43.0034,"raan_deg":40.226,"arg_perigee_deg":257.9122,"mean_anomaly_deg":102.1524,"bstar":4.3097e-6,"rev_number":19264,"period_min":94.266733471319,"perigee_km":481.78932891999,"apogee_km":484.3073839458,"semimajor_km":6861.1853564329,"source":"CELESTRAK","updated_at":"2026-09-21T09:00:33.351470Z"}}